TimeCDT,TemperatureF,Dew PointF,Humidity,Sea Level PressureIn,VisibilityMPH,Wind Direction,Wind SpeedMPH,Gust SpeedMPH,PrecipitationIn,Events,Conditions,WindDirDegrees,DateUTC
12:52 AM,57.0,55.0,93,30.04,3.0,East,10.4,-,N/A,,Overcast,80,2013-05-27 05:52:00
1:02 AM,57.2,55.4,94,30.04,2.5,ENE,11.5,-,N/A,,Overcast,70,2013-05-27 06:02:00
1:26 AM,55.4,55.4,100,30.05,1.8,East,11.5,-,0.05,Rain-Thunderstorm,Thunderstorms and Rain,80,2013-05-27 06:26:00
1:52 AM,57.0,55.0,93,30.01,1.0,ESE,17.3,25.3,0.30,Rain-Thunderstorm,Heavy Thunderstorms and Rain,120,2013-05-27 06:52:00
2:19 AM,57.2,55.4,94,30.03,0.8,SE,8.1,-,0.47,Rain-Thunderstorm,Heavy Thunderstorms and Rain,130,2013-05-27 07:19:00
2:26 AM,57.2,55.4,94,30.02,0.8,ESE,16.1,-,0.66,Rain,Heavy Rain,120,2013-05-27 07:26:00
2:37 AM,57.2,55.4,94,30.00,0.8,ESE,17.3,-,0.93,Rain-Thunderstorm,Heavy Thunderstorms and Rain,110,2013-05-27 07:37:00
2:52 AM,57.0,55.9,96,29.99,2.5,East,11.5,20.7,0.98,Rain-Thunderstorm,Light Rain,100,2013-05-27 07:52:00
3:03 AM,57.2,55.4,94,29.99,2.5,ESE,10.4,-,0.02,Rain,Rain,110,2013-05-27 08:03:00
3:11 AM,57.2,55.4,94,30.02,2.5,ESE,8.1,-,0.03,Rain,Light Rain,120,2013-05-27 08:11:00
3:40 AM,57.2,55.4,94,29.97,1.8,SE,21.9,-,0.13,Rain,Rain,130,2013-05-27 08:40:00
3:52 AM,57.9,57.0,97,30.01,2.5,Variable,6.9,-,0.17,Rain,Light Rain,0,2013-05-27 08:52:00
4:00 AM,57.2,55.4,94,29.99,4.0,NNE,8.1,-,0.00,Rain,Light Rain,30,2013-05-27 09:00:00
4:52 AM,57.9,55.9,93,29.97,5.0,East,8.1,-,0.01,,Overcast,80,2013-05-27 09:52:00
5:52 AM,57.9,55.9,93,29.97,2.5,East,9.2,-,N/A,,Overcast,80,2013-05-27 10:52:00
6:52 AM,59.0,57.0,93,29.99,2.0,East,9.2,-,N/A,,Overcast,100,2013-05-27 11:52:00
7:52 AM,59.0,57.0,93,30.00,2.0,SE,8.1,-,N/A,,Overcast,130,2013-05-27 12:52:00
8:08 AM,59.0,57.2,94,30.00,1.8,ESE,9.2,-,N/A,,Overcast,120,2013-05-27 13:08:00
8:52 AM,60.1,57.9,93,29.98,1.2,ESE,8.1,-,N/A,,Overcast,120,2013-05-27 13:52:00
9:10 AM,60.8,57.2,88,29.97,1.5,ESE,8.1,-,N/A,,Overcast,120,2013-05-27 14:10:00
9:52 AM,60.1,59.0,96,29.93,1.5,SE,10.4,-,N/A,,Overcast,130,2013-05-27 14:52:00
10:52 AM,62.1,59.0,90,29.92,2.0,ESE,10.4,-,N/A,,Overcast,120,2013-05-27 15:52:00
11:04 AM,62.6,59.0,88,29.94,2.0,SE,9.2,-,N/A,,Overcast,130,2013-05-27 16:04:00
11:17 AM,62.6,60.8,94,29.94,1.8,SE,10.4,-,N/A,,Overcast,140,2013-05-27 16:17:00
11:27 AM,62.6,60.8,94,29.93,2.0,SE,9.2,-,N/A,,Overcast,130,2013-05-27 16:27:00
11:52 AM,63.0,60.1,90,29.94,2.5,SE,11.5,-,N/A,,Overcast,130,2013-05-27 16:52:00
12:11 PM,64.4,60.8,88,29.93,3.0,ESE,10.4,-,N/A,,Overcast,110,2013-05-27 17:11:00
12:52 PM,64.9,62.1,90,29.93,4.0,SE,11.5,-,N/A,,Overcast,140,2013-05-27 17:52:00
1:52 PM,66.0,63.0,90,29.89,6.0,SE,11.5,-,N/A,,Overcast,130,2013-05-27 18:52:00
2:22 PM,66.2,64.4,94,29.86,4.0,East,15.0,-,0.00,,Overcast,100,2013-05-27 19:22:00
2:45 PM,68.0,64.4,88,29.86,5.0,ESE,13.8,20.7,0.00,Rain,Light Rain,110,2013-05-27 19:45:00
2:52 PM,68.0,64.0,87,29.85,4.0,ESE,16.1,20.7,0.00,,Overcast,110,2013-05-27 19:52:00
3:34 PM,66.2,62.6,88,29.83,4.0,ESE,17.3,-,N/A,,Overcast,110,2013-05-27 20:34:00
3:52 PM,66.9,63.0,87,29.82,4.0,ESE,16.1,-,N/A,,Overcast,110,2013-05-27 20:52:00
4:35 PM,69.8,62.6,78,29.81,6.0,ESE,13.8,-,N/A,,Haze,110,2013-05-27 21:35:00
4:52 PM,69.1,63.0,81,29.81,6.0,ESE,15.0,21.9,N/A,,Haze,110,2013-05-27 21:52:00
5:52 PM,70.0,63.0,78,29.80,7.0,ESE,12.7,-,N/A,,Mostly Cloudy,110,2013-05-27 22:52:00
6:24 PM,69.8,64.4,83,29.80,7.0,ESE,12.7,-,N/A,,Scattered Clouds,120,2013-05-27 23:24:00
6:52 PM,70.0,63.0,78,29.79,6.0,ESE,11.5,-,N/A,,Haze,110,2013-05-27 23:52:00
6:59 PM,69.8,62.6,78,29.80,6.0,ESE,10.4,-,N/A,,Haze,120,2013-05-27 23:59:00
7:52 PM,68.0,63.0,84,29.81,5.0,ESE,9.2,-,N/A,,Haze,120,2013-05-28 00:52:00
8:09 PM,68.0,62.6,83,29.81,5.0,ESE,11.5,-,N/A,,Haze,120,2013-05-28 01:09:00
8:52 PM,66.9,63.0,87,29.80,6.0,ESE,8.1,-,N/A,,Mostly Cloudy,110,2013-05-28 01:52:00
9:10 PM,66.2,62.6,88,29.81,5.0,ESE,9.2,-,N/A,,Overcast,120,2013-05-28 02:10:00
9:52 PM,66.9,64.0,90,29.82,4.0,SE,8.1,-,0.02,Rain,Light Rain,140,2013-05-28 02:52:00
10:17 PM,66.2,64.4,94,29.82,4.0,ESE,8.1,-,0.00,,Overcast,120,2013-05-28 03:17:00
10:52 PM,66.0,64.0,93,29.82,2.5,East,5.8,-,0.00,Rain,Light Rain,100,2013-05-28 03:52:00
11:04 PM,66.2,64.4,94,29.81,3.0,ESE,8.1,-,0.01,Rain,Light Rain,110,2013-05-28 04:04:00
11:17 PM,66.2,64.4,94,29.81,2.5,East,5.8,-,0.01,,Overcast,90,2013-05-28 04:17:00
11:52 PM,64.9,64.0,97,29.81,3.0,ESE,5.8,-,0.01,,Overcast,110,2013-05-28 04:52:00